{"data":{"norad_id":69204,"intl_designator":"2026-114Y","name":"STARLINK-37669","alt_names":[],"object_type":"PAYLOAD","status":"ACTIVE","operator":null,"country":"US","launch_date":"2026-05-25","launch_site_code":"AFETR","launch_vehicle":null,"mission":null,"orbit_class":"UNKNOWN","rcs_meters":null,"size_class":null,"mass_kg":null,"dimensions":null,"purposes":["comms"],"wikipedia_slug":null,"has_3d_model":false,"image_url":null,"decayed_at":null,"tle_current":{"epoch":"2026-09-19T02:24:19.230912Z","epoch_age_seconds":147967,"freshness":"FRESH","line1":"1 69204U 26114Y   26262.10022258  .00014622  00000+0  44301-3 0  9992","line2":"2 69204  53.1552 120.1010 0001387  93.9610 266.1551 15.34403247 19230","mean_motion":15.34403247,"eccentricity":0.0001387,"inclination_deg":53.1552,"raan_deg":120.101,"arg_perigee_deg":93.961,"mean_anomaly_deg":266.1551,"bstar":0.00044301,"rev_number":1923,"period_min":93.847559487079,"perigee_km":461.74476625309,"apogee_km":463.64241265861,"semimajor_km":6840.8305894558,"source":"CELESTRAK","updated_at":"2026-09-20T09:00:44.100073Z"}}}